Location: Skalnate Pleso
(49.1889°N, 20.2450°E)
Time: 05:48:14
(UTC+01:00)

Cosmos 2322 - Pass Details

Date: 19 November 2019
Orbit: 841 x 854 km, 71.0° (Epoch: 13 December)

Event Time Altitude Azimuth Distance (km) Brightness Sun altitude
Exits shadow 06:00:10 - 326° (NW) 2,987 6.1 -8.9°
Reaches altitude 10° 06:01:31 10° 323° (NW) 2,484 5.6 -8.7°
Maximum altitude 06:06:59 49° 250° (WSW) 1,085 4.0 -7.9°
Drops below altitude 10° 06:12:23 10° 177° (S) 2,459 6.5 -7.1°
Sets 06:14:53 0° 172° (S) 3,388 7.3 -6.7°
